SCP
0 0 0 0 0 0 0 0 0 0 0 0 0 0 0 0 0 0 0 0 0 0 0 0 0 0 0 0 0 0 0 0 0 0 0 0 0 0 0 0 0 0 0
0 0 0 0 0 0 0 0 0 0 0 0 0 0 0 0 0 0 0 0 0 0 0 0 0 0 0 0 0 0 0 0 0 0 0 0 0 0 0 0 0 0 0
0 0 0 0 0 0 0 0 0 0 0 0 0 0 0 0 0 0 0 0 0 0 0 0 0 0 0 0 0 0 0 0 0 0 0 0 0 0 0 0 0 0 0
0 0 0 0 0 0 0 0 0 0 0 0 0 0 0 0 0 0 0 0 0 0 0 0 0 0 0 0 0 0 0 0 0 0 0 0 0 0 0 0 0 0 0
0 0 0 0 0 0 0 0 0 0 0 0 0 0 0 0 0 0 0 0 0 0 0 0 0 0 0 0 0 0 0 0 0 0 0 0 0 0 0 0 0 0 0
0 0 1 1 1 1 1 0 0 0 0 0 0 0 0 0 0 0 0 0 0 0 0 0 0 0 0 0 0 0 0 0 0 0 0 0 0 0 0 0 0 0 0
1 1 1 1 1 1 1 1 0 0 0 0 0 0 0 0 0 0 0 0 0 0 0 0 0 0 0 0 0 0 0 0 0 0 0 0 0 0 0 0 0 0 0
1 1 1 1 1 1 1 1 0 0 0 0 0 0 0 0 0 0 0 0 0 0 0 0 0 0 0 0 0 0 0 0 0 0 0 0 0 0 0 0 0 0 0
1 1 1 1 1 1 1 1 1 0 0 0 0 0 0 0 0 0 0 0 0 0 0 0 0 0 0 0 0 0 0 0 0 0 0 0 0 0 0 0 0 0 0
1 1 1 1 1 1 1 1 1 0 0 0 0 0 0 0 0 0 0 0 0 0 0 0 0 0 0 0 0 0 0 0 0 0 0 0 0 0 0 0 0 0 0
1 1 1 1 1 1 1 1 1 1 0 0 0 0 0 0 0 0 0 0 0 0 0 0 0 0 0 0 0 0 0 0 0 0 0 0 0 0 0 0 0 0 0
1 1 1 1 1 1 1 1 1 1 0 0 0 0 0 0 0 0 0 0 0 0 0 0 0 0 0 0 0 0 0 0 0 0 0 0 0 0 0 0 0 0 0
1 1 1 1 1 1 1 1 1 1 0 0 0 0 0 0 0 0 0 0 0 0 0 0 0 0 0 0 0 0 0 0 0 0 0 0 0 0 0 0 0 0 0
1 1 1 1 1 1 1 1 1 1 0 0 0 0 0 0 0 0 0 0 0 0 0 0 0 0 0 0 0 0 0 0 0 0 0 0 0 0 0 0 0 0 0
0 0 0 1 1 1 1 1 1 0 0 0 0 0 0 0 0 0 0 0 0 0 0 0 0 0 0 0 0 0 0 0 0 0 0 0 0 0 0 0 0 0 0
0 0 0 0 0 0 0 0 0 0 0 0 0 0 0 0 0 0 0 0 0 0 0 0 0 0 0 0 0 0 0 0 0 0 0 0 0 0 0 0 0 0 0
0 0 0 0 0 0 0 0 0 0 0 0 0 0 0 0 0 0 0 0 0 0 0 0 0 0 0 0 0 0 0 0 0 0 0 0 0 0 0 0 0 0 0
0 0 0 0 0 0 0 0 0 0 0 0 0 0 0 0 0 0 0 0 0 0 0 0 0 0 0 0 0 0 0 0 0 0 0 0 0 0 0 0 0 0 0
0 0 0 0 0 0 0 0 0 0 0 0 0 0 0 0 0 0 0 0 0 0 0 0 0 0 0 0 0 0 0 0 0 0 0 0 0 0 0 0 0 0 0
0 0 0 0 0 0 0 0 0 0 0 0 0 0 0 0 0 0 0 0 0 0 0 0 0 0 0 0 0 0 0 0 0 0 0 0 0 0 0 0 0 0 0
0 0 0 0 0 0 0 0 0 0 0 0 0 0 0 0 0 0 0 0 0 0 0 0 0 0 0 0 0 0 0 0 0 0 0 0 0 0 0 0 0 0 0
0 0 0 0 0 0 0 0 0 0 0 0 0 0 0 0 0 0 0 0 0 0 0 0 0 0 0 0 0 0 0 0 0 0 0 0 0 0 0 0 0 0 0
0 0 0 0 0 0 0 0 0 0 0 0 0 0 0 0 0 0 0 0 0 0 0 0 0 0 0 0 0 0 0 0 0 0 0 0 0 0 0 0 0 0 0
0 0 0 0 0 0 0 0 0 0 0 0 0 0 0 0 0 0 0 0 0 0 0 0 0 0 0 0 0 0 0 0 0 0 0 0 0 0 0 0 0 0 0
0 0 0 0 0 0 0 0 0 0 0 0 0 0 0 0 0 0 0 0 0 0 0 0 0 0 0 0 0 0 0 0 0 0 0 0 0 0 0 0 0 0 0
0 0 0 0 0 0 0 0 0 0 0 0 0 0 0 0 0 0 0 0 0 0 0 0 0 0 0 0 0 0 0 0 0 0 0 0 0 0 0 0 0 0 0
Wind_Speed
7 7 6 5 6 5 6 6 6 6 6 6 6 6 6 5 3 2 4 6 3 1 1 2 4 4 3 2 2 2 3 4 4 5 5 6 7 7 7 6 5 4 4
8 7 7 6 7 6 6 6 8 6 6 5 6 6 6 5 5 4 2 6 6 3 1 2 3 4 5 5 3 2 3 4 4 5 5 6 6 7 6 6 5 4 4
9 8 8 7 7 7 8 7 7 6 6 5 7 7 6 5 5 5 4 2 4 6 3 1 2 2 3 5 5 4 3 4 5 5 5 6 6 6 6 6 6 6 6
11 9 8 8 8 7 6 6 6 7 7 7 6 6 6 5 7 6 5 5 3 2 6 4 1 2 2 3 5 5 4 5 5 5 5 5 6 6 6 6 6 6 6
10 9 8 8 9 7 7 7 7 7 7 6 6 5 6 6 6 7 7 6 4 4 2 7 5 3 2 2 3 4 5 6 5 5 5 5 5 5 5 4 5 5 5
10 9 7 10 8 6 6 7 7 6 5 5 6 6 6 6 6 6 6 5 5 5 4 4 5 6 5 3 3 3 4 5 6 5 5 5 5 4 4 3 3 3 3
11 10 8 8 8 7 8 9 7 7 6 6 6 7 7 8 8 6 7 6 7 6 6 6 4 3 5 7 4 3 3 4 5 5 5 5 5 4 3 3 2 1 1
12 10 10 8 8 7 9 9 8 5 5 5 5 5 6 7 7 8 7 7 8 7 8 7 7 6 4 4 7 4 1 2 4 5 5 5 5 5 4 3 2 2 2
11 11 12 10 9 8 8 9 9 9 6 5 6 5 5 6 5 7 9 9 9 7 7 7 8 8 7 4 6 8 5 3 4 5 5 5 6 5 4 3 3 3 3
9 10 11 11 10 9 9 9 9 8 9 7 5 5 5 3 3 3 5 7 8 8 9 7 7 8 8 6 4 5 7 5 5 5 5 6 6 5 5 4 3 4 4
4 6 8 9 9 9 10 10 9 10 8 8 6 5 5 4 6 5 4 4 4 6 7 7 7 7 7 7 6 8 10 7 6 6 6 6 6 6 5 5 5 5 5
1 2 4 6 7 7 9 9 9 11 9 10 8 7 7 6 6 6 6 4 3 3 4 5 6 5 5 6 7 9 9 8 8 7 6 6 6 5 5 5 6 6 6
2 2 0 2 3 5 6 7 8 9 11 11 10 9 8 7 5 5 5 4 4 3 3 4 5 4 5 5 5 9 9 9 9 8 7 7 6 5 4 5 6 6 7
4 3 2 1 0 1 3 4 5 7 7 9 10 10 8 8 6 6 5 4 4 4 4 5 3 5 4 5 3 7 8 11 10 9 9 8 8 6 5 5 5 6 6
4 5 5 4 4 3 1 1 2 4 5 7 8 9 7 6 6 6 5 4 4 4 4 4 3 3 3 3 4 6 7 10 10 10 9 9 9 8 6 5 4 4 4
6 6 6 5 5 4 4 2 1 1 2 3 4 6 6 5 5 5 5 4 3 3 3 3 3 3 2 3 3 5 4 8 8 8 9 9 9 8 7 6 5 4 4
7 7 6 6 6 5 5 3 3 2 1 0 1 3 4 4 4 5 5 5 4 3 3 2 2 3 4 4 4 4 4 6 7 8 7 7 8 8 8 7 6 5 5
8 8 7 7 6 5 5 4 4 3 3 3 2 2 3 3 4 4 4 5 4 4 3 3 4 4 4 3 3 4 3 3 3 7 5 5 5 5 5 4 4 4 4
9 9 8 8 8 7 5 3 2 2 2 2 3 3 3 3 4 4 4 4 3 3 3 3 3 3 3 3 4 4 4 3 4 7 7 6 6 5 4 2 1 1 1
10 10 10 9 9 9 8 6 3 1 1 1 2 3 3 4 4 4 4 4 4 4 3 3 3 4 4 3 4 5 5 4 4 6 8 9 12 12 11 10 8 6 5
10 10 10 10 11 10 11 11 6 3 2 1 1 2 3 3 5 4 3 4 4 4 4 4 4 4 4 4 4 4 5 6 5 5 6 6 6 6 7 10 11 12 11
10 10 10 10 11 10 14 14 11 6 5 3 2 2 3 3 4 4 4 3 2 3 4 4 4 4 4 4 4 4 6 6 4 4 6 6 6 7 7 7 10 12 13
10 10 10 9 10 12 15 14 12 7 6 5 4 3 3 4 4 4 5 6 5 5 2 1 4 4 4 4 5 6 5 5 6 5 7 6 6 8 7 9 14 14 14
8 8 9 9 8 11 15 14 11 5 5 5 5 4 4 5 4 4 4 4 5 6 4 3 5 5 5 4 5 6 9 10 8 5 5 5 5 6 7 8 14 16 15
7 7 7 8 8 9 14 14 12 4 4 5 5 5 3 5 6 5 5 5 6 7 9 13 13 11 10 8 4 6 7 8 6 4 3 4 5 6 6 7 11 16 16
6 6 6 7 8 9 13 14 13 4 4 4 4 5 7 5 5 3 5 5 6 6 6 7 8 7 8 8 3 3 4 6 7 5 4 5 6 6 5 4 4 4 8
Wind_Direction
237 235 224 215 221 215 201 217 223 205 219 218 205 216 203 192 195 197 119 119 104 57 294 223 196 194 197 202 203 194 180 170 160 152 151 154 157 158 159 159 161 164 164
236 239 237 221 222 221 220 218 216 205 212 216 214 212 227 207 204 195 176 142 140 122 11 285 241 212 203 202 207 209 192 176 176 170 167 167 169 172 175 179 186 196 204
243 237 242 232 222 216 219 221 216 214 213 210 220 226 221 230 225 212 190 197 159 150 158 230 276 260 222 208 204 205 200 191 189 187 185 184 185 188 192 200 210 221 231
246 242 240 239 232 223 219 213 221 215 213 216 222 219 221 211 230 231 215 204 199 163 158 156 212 249 238 222 210 206 203 196 197 199 199 198 198 201 206 217 227 240 248
254 243 239 240 232 224 222 218 214 219 224 225 235 231 233 219 216 219 226 220 192 208 186 145 176 201 214 212 211 214 209 199 196 200 202 201 202 207 214 225 237 247 253
253 247 239 238 232 221 219 218 214 217 237 236 242 236 231 226 224 221 232 232 226 205 209 186 188 171 181 191 206 221 213 198 196 196 197 196 195 198 203 212 229 244 251
242 238 237 235 226 219 218 215 211 211 221 232 239 233 225 224 231 217 223 229 228 218 217 207 214 191 168 177 195 210 214 200 192 193 192 186 182 182 186 193 207 219 220
233 230 227 228 224 221 220 214 203 206 208 214 229 239 236 222 220 226 222 227 237 215 224 217 208 198 205 183 137 166 181 201 193 191 187 176 170 170 174 183 197 212 212
236 228 225 223 223 220 221 214 204 204 202 207 225 224 229 233 224 210 220 223 230 233 225 226 221 205 198 199 168 171 176 189 199 193 184 174 171 172 176 191 203 208 201
241 230 226 224 221 219 220 215 209 212 206 201 206 225 242 270 238 222 211 226 228 229 233 224 228 225 205 201 174 137 168 189 201 201 192 184 180 181 186 197 208 206 202
243 234 226 221 220 220 221 217 209 211 210 206 198 196 215 236 247 247 233 211 216 227 235 235 225 224 214 210 203 172 170 192 203 211 207 198 192 192 198 201 208 207 196
244 234 225 222 221 220 219 217 213 211 212 214 210 203 198 201 212 220 226 225 223 225 227 231 239 223 219 224 209 146 175 196 205 210 211 206 202 203 206 206 205 205 202
31 23 354 221 224 230 230 224 219 217 217 219 219 216 215 214 197 194 206 215 222 221 227 226 225 220 217 223 199 163 194 203 208 210 207 202 199 205 219 223 217 215 208
33 30 47 64 95 237 239 234 233 230 230 230 229 222 217 215 204 195 191 190 204 208 217 223 201 214 215 220 172 184 200 196 208 211 208 202 197 197 210 227 236 235 228
37 40 44 48 49 40 5 275 247 242 242 239 235 228 220 211 202 197 187 185 190 194 207 217 204 196 206 215 157 212 217 182 199 209 209 204 200 199 206 215 228 236 242
37 43 49 55 52 47 42 41 20 313 254 243 231 223 215 206 195 188 183 182 189 184 191 190 203 171 184 206 182 232 218 151 193 206 210 207 202 202 205 210 219 228 240
33 38 37 43 49 47 46 52 53 49 66 86 214 201 196 189 184 178 175 174 179 174 184 171 191 189 199 206 179 202 200 201 180 184 197 203 202 204 205 208 217 228 241
34 36 36 37 39 36 35 38 44 48 59 70 82 125 157 168 168 166 167 167 168 173 184 186 188 195 202 186 187 185 185 190 168 138 162 174 182 193 198 211 224 236 248
32 36 39 37 34 28 24 27 30 38 63 88 106 114 126 132 136 139 148 154 156 169 184 191 175 168 186 177 177 168 161 150 138 130 129 117 101 93 85 81 58 311 295
36 33 36 37 35 29 18 9 12 20 32 76 119 125 132 137 137 134 139 149 156 163 169 177 170 172 171 174 185 169 151 134 124 111 89 89 87 80 71 66 63 61 60
40 34 33 36 36 32 20 5 360 18 14 26 95 119 122 120 139 145 149 158 163 161 166 175 170 167 165 170 168 161 140 126 104 105 103 91 89 78 73 65 64 67 69
34 32 29 30 34 32 20 17 2 20 22 28 52 91 113 125 131 132 135 135 133 158 169 171 165 160 147 143 141 152 148 148 117 102 98 79 76 72 59 58 58 68 71
30 27 24 23 27 27 18 18 9 14 30 31 31 62 98 98 107 115 121 125 101 66 21 147 132 124 130 138 149 150 146 121 101 110 106 90 80 78 71 60 60 65 68
28 25 21 16 18 23 15 12 352 22 41 41 42 58 98 110 108 108 114 101 93 80 53 75 90 88 90 111 122 119 112 108 99 91 107 98 96 91 84 69 61 64 64
21 25 26 18 15 18 14 8 349 24 46 51 47 53 69 107 103 107 115 112 100 85 67 65 65 73 66 52 64 127 133 129 117 99 100 109 124 112 97 94 81 74 68
21 23 29 21 18 16 13 9 355 8 35 55 59 72 65 68 96 113 146 142 129 119 116 110 102 109 100 87 38 119 134 136 131 119 128 134 153 142 112 83 79 93 88